Find Starlink 30802

NORAD ID: 58150 Int'l Des: 2023-166 Owner: SPXS Country: US Constellation: starlink operational
LEOCIRCULAR

Current View

Loading 3D Globe...

About Starlink 30802

Starlink 30802 (NORAD 58150) is a starlink constellation satellite (v2 mini) launched Oct 29, 2023 by SPXS of US. It operates in LEO, CIRCULAR orbit with a mass of 730.00 kg.

About Starlink 30802

Description loading...

Upcoming Passes

Passes for default location (London). Set your location on the main map for personalized predictions.

Altitude History

Loading altitude history...

Two-Line Element Set

1 58150U 23166A 26169.54092022 -.00000230 00000-0 43586-5 0 9992
2 58150 53.1614 110.8999 0001357 74.5599 285.5552 15.31701000148624
Epoch: Jun 18, 2026 • Age: 6 hours

Current Status

Altitude 475.2 km
Velocity 7.63 km/s
Sub-Earth Point -16.06°S, 97.1°W
Launch Date Oct 29, 2023
Age 2.6 years
Type internet

Technical Details

Classification Payload
Mass 730.00 kg
Dry Mass 700.00 kg
Total Mass 730.00 kg
Length 0.30 m
Diameter 4.10 m
Span 29.00 m
Shape Box + pan
Manufacturer SPXS
Bus Type Starlink V2M
Phase Status In Orbit
Owner/State SPXS/US

Most Searched